Time,TemperatureF,DewpointF,PressureIn,WindDirection,WindDirectionDegrees,WindSpeedMPH,WindSpeedGustMPH,Humidity,HourlyPrecipIn,Conditions,Clouds,dailyrainin,SoftwareType,DateUTC
2013-08-27 00:00:00,70.2,69.3,29.08,NW,326,0.0,0.0,97,0.00,,,0.00,Wunderground v.1.15,2013-08-27 04:00:00,
2013-08-27 00:05:00,70.2,69.3,29.08,NW,311,0.0,0.0,97,0.00,,,0.00,Wunderground v.1.15,2013-08-27 04:05:00,
2013-08-27 00:10:00,70.2,69.3,29.08,NNW,340,0.0,0.0,97,0.00,,,0.00,Wunderground v.1.15,2013-08-27 04:10:00,
2013-08-27 00:15:00,70.1,69.2,29.08,WNW,300,0.0,0.0,97,0.00,,,0.00,Wunderground v.1.15,2013-08-27 04:15:00,
2013-08-27 00:19:00,70.1,69.2,29.08,WNW,300,0.0,0.0,97,0.00,,,0.00,Wunderground v.1.15,2013-08-27 04:19:00,
2013-08-27 00:24:00,70.1,69.2,29.07,WNW,298,0.0,0.0,97,0.00,,,0.00,Wunderground v.1.15,2013-08-27 04:24:00,
2013-08-27 00:29:00,70.0,69.1,29.08,NW,313,0.0,0.0,97,0.00,,,0.00,Wunderground v.1.15,2013-08-27 04:29:00,
2013-08-27 00:34:00,70.0,69.1,29.08,NW,314,0.0,0.0,97,0.00,,,0.00,Wunderground v.1.15,2013-08-27 04:34:00,
2013-08-27 00:39:00,70.0,69.1,29.07,WNW,296,0.0,0.0,97,0.00,,,0.00,Wunderground v.1.15,2013-08-27 04:39:00,
2013-08-27 00:44:00,70.0,69.1,29.07,WNW,294,0.0,0.0,97,0.00,,,0.00,Wunderground v.1.15,2013-08-27 04:44:00,
2013-08-27 00:54:00,69.9,69.0,29.08,NW,317,0.0,0.0,97,0.00,,,0.00,Wunderground v.1.15,2013-08-27 04:54:00,
2013-08-27 00:59:00,69.9,69.0,29.08,NNW,328,0.0,0.0,97,0.00,,,0.00,Wunderground v.1.15,2013-08-27 04:59:00,
2013-08-27 01:04:00,69.9,69.0,29.08,NNW,329,0.0,6.0,97,0.00,,,0.00,Wunderground v.1.15,2013-08-27 05:04:00,
2013-08-27 01:09:00,69.8,68.9,29.08,NNW,329,0.0,6.0,97,0.00,,,0.00,Wunderground v.1.15,2013-08-27 05:09:00,
2013-08-27 01:14:00,69.9,69.3,29.07,NNW,327,0.0,6.0,98,0.00,,,0.00,Wunderground v.1.15,2013-08-27 05:14:00,
2013-08-27 01:19:00,70.0,69.4,29.08,NW,312,0.0,6.0,98,0.00,,,0.00,Wunderground v.1.15,2013-08-27 05:19:00,
2013-08-27 01:25:00,69.9,69.3,29.08,NNW,332,0.0,6.0,98,0.00,,,0.00,Wunderground v.1.15,2013-08-27 05:25:00,
2013-08-27 01:30:00,69.9,69.3,29.08,NNW,332,0.0,6.0,98,0.00,,,0.00,Wunderground v.1.15,2013-08-27 05:30:00,
2013-08-27 01:35:00,69.9,69.3,29.07,WNW,296,0.0,6.0,98,0.00,,,0.00,Wunderground v.1.15,2013-08-27 05:35:00,
2013-08-27 01:40:00,69.9,69.3,29.07,WNW,292,0.0,6.0,98,0.00,,,0.00,Wunderground v.1.15,2013-08-27 05:40:00,
2013-08-27 01:45:00,69.8,69.2,29.07,WNW,298,0.0,6.0,98,0.00,,,0.00,Wunderground v.1.15,2013-08-27 05:45:00,
2013-08-27 01:50:00,69.8,69.2,29.06,WNW,288,0.0,6.0,98,0.00,,,0.00,Wunderground v.1.15,2013-08-27 05:50:00,
2013-08-27 02:00:00,69.8,69.2,29.07,NW,309,0.0,6.0,98,0.00,,,0.01,Wunderground v.1.15,2013-08-27 06:00:00,
2013-08-27 02:05:00,69.8,69.2,29.07,NW,309,0.0,6.0,98,0.00,,,0.01,Wunderground v.1.15,2013-08-27 06:05:00,
2013-08-27 02:10:00,69.7,69.1,29.07,WNW,301,0.0,6.0,98,0.00,,,0.01,Wunderground v.1.15,2013-08-27 06:10:00,
2013-08-27 02:15:00,69.7,69.1,29.07,WNW,294,0.0,6.0,98,0.00,,,0.01,Wunderground v.1.15,2013-08-27 06:15:00,
2013-08-27 02:20:00,69.8,69.2,29.07,WNW,291,0.0,6.0,98,0.00,,,0.01,Wunderground v.1.15,2013-08-27 06:20:00,
2013-08-27 02:30:00,69.8,69.2,29.07,WNW,290,0.0,6.0,98,0.00,,,0.01,Wunderground v.1.15,2013-08-27 06:30:00,
2013-08-27 02:35:00,69.9,69.3,29.07,WNW,296,0.0,6.0,98,0.00,,,0.01,Wunderground v.1.15,2013-08-27 06:35:00,
2013-08-27 02:40:00,70.0,69.4,29.07,NW,304,1.0,1.0,98,0.00,,,0.01,Wunderground v.1.15,2013-08-27 06:40:00,
2013-08-27 02:45:00,70.1,69.5,29.07,WNW,296,0.0,6.0,98,0.00,,,0.01,Wunderground v.1.15,2013-08-27 06:45:00,
2013-08-27 02:50:00,70.1,69.5,29.07,WNW,295,0.0,6.0,98,0.00,,,0.01,Wunderground v.1.15,2013-08-27 06:50:00,
2013-08-27 02:55:00,70.1,69.5,29.07,NW,304,0.0,6.0,98,0.00,,,0.01,Wunderground v.1.15,2013-08-27 06:55:00,
2013-08-27 03:05:00,70.2,69.6,29.07,WNW,299,0.0,6.0,98,0.00,,,0.01,Wunderground v.1.15,2013-08-27 07:05:00,
2013-08-27 03:10:00,70.2,69.6,29.06,WNW,302,0.0,6.0,98,0.00,,,0.01,Wunderground v.1.15,2013-08-27 07:10:00,
2013-08-27 03:15:00,70.3,69.7,29.06,WNW,286,0.0,6.0,98,0.00,,,0.01,Wunderground v.1.15,2013-08-27 07:15:00,
2013-08-27 03:20:00,70.3,69.7,29.06,WNW,294,0.0,6.0,98,0.00,,,0.01,Wunderground v.1.15,2013-08-27 07:20:00,
2013-08-27 03:25:00,70.3,69.7,29.06,WNW,302,0.0,6.0,98,0.00,,,0.01,Wunderground v.1.15,2013-08-27 07:25:00,
2013-08-27 03:34:00,70.3,69.7,29.06,WNW,298,0.0,6.0,98,0.00,,,0.01,Wunderground v.1.15,2013-08-27 07:34:00,
2013-08-27 03:39:00,70.3,69.7,29.06,WNW,297,0.0,6.0,98,0.00,,,0.01,Wunderground v.1.15,2013-08-27 07:39:00,
2013-08-27 03:44:00,70.4,69.8,29.06,WNW,297,1.0,6.0,98,0.00,,,0.01,Wunderground v.1.15,2013-08-27 07:44:00,
2013-08-27 03:49:00,70.3,69.7,29.06,WNW,294,0.0,6.0,98,0.00,,,0.01,Wunderground v.1.15,2013-08-27 07:49:00,
2013-08-27 03:54:00,70.3,69.7,29.07,NNW,327,0.0,6.0,98,0.00,,,0.01,Wunderground v.1.15,2013-08-27 07:54:00,
2013-08-27 03:59:00,70.3,69.7,29.07,WNW,301,0.0,6.0,98,0.00,,,0.01,Wunderground v.1.15,2013-08-27 07:59:00,
2013-08-27 04:09:00,70.2,69.9,29.06,NW,321,0.0,6.0,99,0.00,,,0.01,Wunderground v.1.15,2013-08-27 08:09:00,
2013-08-27 04:14:00,70.2,69.9,29.06,NW,320,0.0,6.0,99,0.00,,,0.01,Wunderground v.1.15,2013-08-27 08:14:00,
2013-08-27 04:19:00,70.2,69.9,29.06,WNW,296,0.0,6.0,99,0.00,,,0.01,Wunderground v.1.15,2013-08-27 08:19:00,
2013-08-27 04:24:00,70.2,69.9,29.06,WNW,293,0.0,6.0,99,0.00,,,0.01,Wunderground v.1.15,2013-08-27 08:24:00,
2013-08-27 04:29:00,70.1,69.8,29.06,WNW,294,0.0,6.0,99,0.00,,,0.01,Wunderground v.1.15,2013-08-27 08:29:00,
2013-08-27 04:35:00,70.1,69.8,29.06,NW,311,1.0,6.0,99,0.00,,,0.01,Wunderground v.1.15,2013-08-27 08:35:00,
2013-08-27 04:40:00,70.0,69.7,29.06,NW,319,1.0,6.0,99,0.00,,,0.01,Wunderground v.1.15,2013-08-27 08:40:00,
2013-08-27 04:45:00,69.9,69.6,29.06,WNW,296,1.0,6.0,99,0.00,,,0.01,Wunderground v.1.15,2013-08-27 08:45:00,
2013-08-27 04:50:00,69.9,69.6,29.05,WNW,298,1.0,1.0,99,0.00,,,0.01,Wunderground v.1.15,2013-08-27 08:50:00,
2013-08-27 04:55:00,69.8,69.5,29.05,West,281,0.0,6.0,99,0.00,,,0.01,Wunderground v.1.15,2013-08-27 08:55:00,
2013-08-27 05:00:00,69.8,69.5,29.05,WNW,290,0.0,6.0,99,0.00,,,0.01,Wunderground v.1.15,2013-08-27 09:00:00,
2013-08-27 05:10:00,69.8,69.5,29.06,NW,304,0.0,6.0,99,0.00,,,0.02,Wunderground v.1.15,2013-08-27 09:10:00,
2013-08-27 05:15:00,69.8,69.5,29.06,WNW,296,0.0,6.0,99,0.00,,,0.02,Wunderground v.1.15,2013-08-27 09:15:00,
2013-08-27 05:20:00,69.7,69.4,29.06,WNW,294,0.0,6.0,99,0.00,,,0.02,Wunderground v.1.15,2013-08-27 09:20:00,
2013-08-27 05:25:00,69.7,69.4,29.06,WNW,301,0.0,6.0,99,0.00,,,0.02,Wunderground v.1.15,2013-08-27 09:25:00,
2013-08-27 05:30:00,69.7,69.4,29.07,NW,313,0.0,6.0,99,0.00,,,0.02,Wunderground v.1.15,2013-08-27 09:30:00,
2013-08-27 05:35:00,69.7,69.4,29.07,NW,314,0.0,6.0,99,0.00,,,0.02,Wunderground v.1.15,2013-08-27 09:35:00,
2013-08-27 05:45:00,69.7,69.4,29.07,WNW,293,0.0,6.0,99,0.00,,,0.02,Wunderground v.1.15,2013-08-27 09:45:00,
2013-08-27 05:50:00,69.7,69.4,29.07,WNW,303,0.0,6.0,99,0.00,,,0.02,Wunderground v.1.15,2013-08-27 09:50:00,
2013-08-27 05:55:00,69.7,69.4,29.07,NW,317,0.0,6.0,99,0.00,,,0.02,Wunderground v.1.15,2013-08-27 09:55:00,
2013-08-27 06:00:00,69.7,69.4,29.07,NW,311,0.0,6.0,99,0.00,,,0.02,Wunderground v.1.15,2013-08-27 10:00:00,
2013-08-27 06:05:00,69.7,69.4,29.07,NW,325,0.0,6.0,99,0.00,,,0.02,Wunderground v.1.15,2013-08-27 10:05:00,
2013-08-27 06:15:00,69.7,69.4,29.07,NW,313,0.0,6.0,99,0.00,,,0.02,Wunderground v.1.15,2013-08-27 10:15:00,
2013-08-27 06:20:00,69.7,69.4,29.07,WNW,291,0.0,6.0,99,0.00,,,0.02,Wunderground v.1.15,2013-08-27 10:20:00,
2013-08-27 06:25:00,69.6,69.3,29.07,WNW,302,0.0,6.0,99,0.00,,,0.02,Wunderground v.1.15,2013-08-27 10:25:00,
2013-08-27 06:30:00,69.6,69.3,29.07,NW,305,0.0,6.0,99,0.00,,,0.02,Wunderground v.1.15,2013-08-27 10:30:00,
2013-08-27 06:35:00,69.5,69.2,29.08,NW,305,0.0,6.0,99,0.00,,,0.02,Wunderground v.1.15,2013-08-27 10:35:00,
2013-08-27 06:40:00,69.5,69.2,29.08,NW,305,0.0,6.0,99,0.00,,,0.02,Wunderground v.1.15,2013-08-27 10:40:00,
2013-08-27 06:49:00,69.6,69.3,29.07,WNW,301,0.0,6.0,99,0.00,,,0.02,Wunderground v.1.15,2013-08-27 10:49:00,
2013-08-27 06:54:00,69.5,69.2,29.07,WNW,299,0.0,6.0,99,0.00,,,0.02,Wunderground v.1.15,2013-08-27 10:54:00,
2013-08-27 06:59:00,69.5,69.2,29.08,WNW,302,0.0,6.0,99,0.00,,,0.02,Wunderground v.1.15,2013-08-27 10:59:00,
2013-08-27 07:04:00,69.4,69.1,29.08,WNW,290,0.0,6.0,99,0.00,,,0.02,Wunderground v.1.15,2013-08-27 11:04:00,
2013-08-27 07:09:00,69.4,69.1,29.08,WNW,298,1.0,1.0,99,0.00,,,0.02,Wunderground v.1.15,2013-08-27 11:09:00,
2013-08-27 07:19:00,69.4,69.1,29.08,WNW,302,0.0,6.0,99,0.00,,,0.02,Wunderground v.1.15,2013-08-27 11:19:00,
2013-08-27 07:24:00,69.5,69.2,29.08,WNW,293,0.0,6.0,99,0.00,,,0.02,Wunderground v.1.15,2013-08-27 11:24:00,
2013-08-27 07:29:00,69.5,69.2,29.07,WNW,297,0.0,6.0,99,0.00,,,0.02,Wunderground v.1.15,2013-08-27 11:29:00,
2013-08-27 07:34:00,69.6,69.3,29.07,NW,306,0.0,6.0,99,0.00,,,0.02,Wunderground v.1.15,2013-08-27 11:34:00,
2013-08-27 07:39:00,69.7,69.4,29.07,NNW,329,0.0,6.0,99,0.00,,,0.02,Wunderground v.1.15,2013-08-27 11:39:00,
2013-08-27 07:44:00,69.8,69.5,29.07,NNW,329,0.0,6.0,99,0.00,,,0.02,Wunderground v.1.15,2013-08-27 11:44:00,
2013-08-27 07:54:00,70.0,69.7,29.07,NW,306,0.0,6.0,99,0.00,,,0.02,Wunderground v.1.15,2013-08-27 11:54:00,
2013-08-27 07:59:00,70.0,69.7,29.07,NW,311,0.0,6.0,99,0.00,,,0.02,Wunderground v.1.15,2013-08-27 11:59:00,
2013-08-27 08:04:00,70.2,69.9,29.08,NW,323,0.0,6.0,99,0.00,,,0.02,Wunderground v.1.15,2013-08-27 12:04:00,
2013-08-27 08:09:00,70.3,70.0,29.08,NW,309,0.0,6.0,99,0.00,,,0.02,Wunderground v.1.15,2013-08-27 12:09:00,
2013-08-27 08:14:00,70.4,70.1,29.08,WNW,288,0.0,6.0,99,0.00,,,0.02,Wunderground v.1.15,2013-08-27 12:14:00,
2013-08-27 08:20:00,70.5,70.2,29.08,WNW,296,0.0,6.0,99,0.00,,,0.02,Wunderground v.1.15,2013-08-27 12:20:00,
2013-08-27 08:25:00,70.4,70.1,29.08,WNW,292,0.0,6.0,99,0.00,,,0.02,Wunderground v.1.15,2013-08-27 12:25:00,
2013-08-27 08:30:00,70.5,70.2,29.08,NNW,329,0.0,6.0,99,0.00,,,0.02,Wunderground v.1.15,2013-08-27 12:30:00,
2013-08-27 08:35:00,70.7,70.7,29.08,NNW,331,0.0,6.0,100,0.00,,,0.02,Wunderground v.1.15,2013-08-27 12:35:00,
2013-08-27 08:40:00,70.8,70.8,29.08,NNW,331,0.0,6.0,100,0.00,,,0.02,Wunderground v.1.15,2013-08-27 12:40:00,
2013-08-27 08:45:00,70.9,70.6,29.08,NNW,330,0.0,6.0,99,0.00,,,0.02,Wunderground v.1.15,2013-08-27 12:45:00,
2013-08-27 08:55:00,70.8,70.5,29.08,NW,323,0.0,6.0,99,0.00,,,0.02,Wunderground v.1.15,2013-08-27 12:55:00,
2013-08-27 09:00:00,70.8,70.5,29.08,WNW,302,0.0,6.0,99,0.00,,,0.02,Wunderground v.1.15,2013-08-27 13:00:00,
2013-08-27 09:05:00,70.9,70.6,29.08,NW,323,0.0,6.0,99,0.00,,,0.02,Wunderground v.1.15,2013-08-27 13:05:00,
2013-08-27 09:10:00,71.0,70.7,29.07,NW,323,0.0,6.0,99,0.00,,,0.02,Wunderground v.1.15,2013-08-27 13:10:00,
2013-08-27 09:15:00,71.3,71.3,29.08,NW,324,0.0,6.0,100,0.00,,,0.02,Wunderground v.1.15,2013-08-27 13:15:00,
2013-08-27 09:20:00,71.5,71.5,29.08,NW,324,0.0,6.0,100,0.00,,,0.02,Wunderground v.1.15,2013-08-27 13:20:00,
2013-08-27 09:30:00,71.9,71.6,29.08,NW,321,0.0,6.0,99,0.00,,,0.02,Wunderground v.1.15,2013-08-27 13:30:00,
2013-08-27 09:35:00,71.9,71.6,29.08,NW,320,0.0,6.0,99,0.00,,,0.02,Wunderground v.1.15,2013-08-27 13:35:00,
2013-08-27 09:40:00,72.2,71.9,29.08,NW,320,0.0,6.0,99,0.00,,,0.02,Wunderground v.1.15,2013-08-27 13:40:00,
2013-08-27 09:45:00,72.5,72.2,29.08,NNW,333,0.0,6.0,99,0.00,,,0.02,Wunderground v.1.15,2013-08-27 13:45:00,
2013-08-27 09:50:00,72.7,72.4,29.08,NNW,337,0.0,6.0,99,0.00,,,0.02,Wunderground v.1.15,2013-08-27 13:50:00,
2013-08-27 09:59:00,73.1,72.8,29.08,NNW,337,0.0,6.0,99,0.00,,,0.02,Wunderground v.1.15,2013-08-27 13:59:00,
2013-08-27 10:04:00,73.4,73.1,29.08,NNW,338,0.0,6.0,99,0.00,,,0.02,Wunderground v.1.15,2013-08-27 14:04:00,
2013-08-27 10:10:00,73.3,72.7,29.08,NNW,334,0.0,6.0,98,0.00,,,0.02,Wunderground v.1.15,2013-08-27 14:10:00,
2013-08-27 10:15:00,73.4,72.8,29.08,NNW,335,0.0,6.0,98,0.00,,,0.02,Wunderground v.1.15,2013-08-27 14:15:00,
2013-08-27 10:20:00,73.5,72.9,29.08,NNW,333,0.0,6.0,98,0.00,,,0.02,Wunderground v.1.15,2013-08-27 14:20:00,
2013-08-27 10:25:00,73.5,72.6,29.08,NNW,336,0.0,6.0,97,0.00,,,0.02,Wunderground v.1.15,2013-08-27 14:25:00,
2013-08-27 10:34:00,74.0,73.1,29.08,NNW,333,0.0,6.0,97,0.00,,,0.02,Wunderground v.1.15,2013-08-27 14:34:00,
2013-08-27 10:39:00,74.0,72.8,29.08,NNW,333,0.0,6.0,96,0.00,,,0.02,Wunderground v.1.15,2013-08-27 14:39:00,
2013-08-27 10:44:00,74.2,73.0,29.08,NNW,333,0.0,6.0,96,0.00,,,0.02,Wunderground v.1.15,2013-08-27 14:44:00,
2013-08-27 10:49:00,74.3,73.1,29.08,NNW,333,0.0,6.0,96,0.00,,,0.02,Wunderground v.1.15,2013-08-27 14:49:00,
2013-08-27 10:54:00,74.5,73.3,29.07,NNW,333,0.0,6.0,96,0.00,,,0.02,Wunderground v.1.15,2013-08-27 14:54:00,
2013-08-27 11:04:00,75.2,74.0,29.07,NNW,333,0.0,6.0,96,0.00,,,0.02,Wunderground v.1.15,2013-08-27 15:04:00,
2013-08-27 11:09:00,76.1,74.6,29.07,NNW,333,0.0,6.0,95,0.00,,,0.02,Wunderground v.1.15,2013-08-27 15:09:00,
2013-08-27 11:14:00,77.0,74.8,29.07,NNW,333,0.0,6.0,93,0.00,,,0.02,Wunderground v.1.15,2013-08-27 15:14:00,
2013-08-27 11:19:00,77.6,74.8,29.07,NNW,333,0.0,6.0,91,0.00,,,0.02,Wunderground v.1.15,2013-08-27 15:19:00,
2013-08-27 11:24:00,78.5,75.0,29.07,NNE,17,0.0,6.0,89,0.00,,,0.02,Wunderground v.1.15,2013-08-27 15:24:00,
2013-08-27 11:29:00,79.3,75.1,29.07,NNE,19,0.0,6.0,87,0.00,,,0.02,Wunderground v.1.15,2013-08-27 15:29:00,
2013-08-27 11:35:00,80.2,74.9,29.07,NNE,19,0.0,6.0,84,0.00,,,0.02,Wunderground v.1.15,2013-08-27 15:35:00,
2013-08-27 11:40:00,80.5,75.2,29.07,NNE,19,0.0,6.0,84,0.00,,,0.02,Wunderground v.1.15,2013-08-27 15:40:00,
2013-08-27 11:45:00,81.0,75.3,29.07,NNE,19,0.0,6.0,83,0.00,,,0.02,Wunderground v.1.15,2013-08-27 15:45:00,
2013-08-27 11:50:00,81.6,75.2,29.07,NNW,348,1.0,1.0,81,0.00,,,0.02,Wunderground v.1.15,2013-08-27 15:50:00,
2013-08-27 11:55:00,82.0,75.2,29.07,NNW,348,1.0,6.0,80,0.00,,,0.02,Wunderground v.1.15,2013-08-27 15:55:00,
2013-08-27 12:00:00,82.5,76.1,29.06,NNW,348,0.0,6.0,81,0.00,,,0.02,Wunderground v.1.15,2013-08-27 16:00:00,
2013-08-27 12:10:00,84.0,76.0,29.06,North,355,0.0,6.0,77,0.00,,,0.03,Wunderground v.1.15,2013-08-27 16:10:00,
2013-08-27 12:15:00,83.8,75.4,29.06,North,355,1.0,6.0,76,0.00,,,0.03,Wunderground v.1.15,2013-08-27 16:15:00,
2013-08-27 12:20:00,83.7,76.1,29.06,North,355,1.0,1.0,78,0.00,,,0.03,Wunderground v.1.15,2013-08-27 16:20:00,
2013-08-27 12:25:00,84.1,76.1,29.06,North,351,0.0,6.0,77,0.00,,,0.03,Wunderground v.1.15,2013-08-27 16:25:00,
2013-08-27 12:30:00,83.9,75.5,29.06,NNW,348,0.0,6.0,76,0.00,,,0.03,Wunderground v.1.15,2013-08-27 16:30:00,
2013-08-27 12:40:00,84.5,75.3,29.06,NNE,26,1.0,6.0,74,0.00,,,0.03,Wunderground v.1.15,2013-08-27 16:40:00,
2013-08-27 12:45:00,84.6,75.8,29.06,NNE,22,2.0,6.0,75,0.00,,,0.03,Wunderground v.1.15,2013-08-27 16:45:00,
2013-08-27 12:50:00,85.3,76.9,29.06,NNE,15,1.0,1.0,76,0.00,,,0.03,Wunderground v.1.15,2013-08-27 16:50:00,
2013-08-27 12:55:00,85.6,76.4,29.06,NNW,329,0.0,6.0,74,0.00,,,0.03,Wunderground v.1.15,2013-08-27 16:55:00,
2013-08-27 13:00:00,85.5,76.3,29.06,NNW,329,0.0,6.0,74,0.00,,,0.03,Wunderground v.1.15,2013-08-27 17:00:00,
2013-08-27 13:05:00,84.7,75.5,29.06,NNE,16,1.0,6.0,74,0.00,,,0.03,Wunderground v.1.15,2013-08-27 17:05:00,
2013-08-27 13:15:00,83.3,75.3,29.05,NNE,16,1.0,6.0,77,0.00,,,0.03,Wunderground v.1.15,2013-08-27 17:15:00,
2013-08-27 13:20:00,82.9,74.9,29.05,NNE,16,0.0,6.0,77,0.00,,,0.03,Wunderground v.1.15,2013-08-27 17:20:00,
2013-08-27 13:25:00,82.7,75.5,29.05,North,355,0.0,6.0,79,0.00,,,0.03,Wunderground v.1.15,2013-08-27 17:25:00,
2013-08-27 13:30:00,82.6,75.4,29.05,North,350,1.0,6.0,79,0.00,,,0.03,Wunderground v.1.15,2013-08-27 17:30:00,
2013-08-27 13:35:00,82.4,75.2,29.05,NNW,347,1.0,6.0,79,0.00,,,0.03,Wunderground v.1.15,2013-08-27 17:35:00,
2013-08-27 13:44:00,82.2,75.0,29.05,NNW,346,0.0,6.0,79,0.00,,,0.03,Wunderground v.1.15,2013-08-27 17:44:00,
2013-08-27 13:49:00,82.0,74.8,29.05,NW,320,0.0,6.0,79,0.00,,,0.03,Wunderground v.1.15,2013-08-27 17:49:00,
2013-08-27 13:54:00,81.9,75.1,29.05,NNW,337,0.0,6.0,80,0.00,,,0.03,Wunderground v.1.15,2013-08-27 17:54:00,
2013-08-27 13:59:00,81.9,74.7,29.05,NNW,336,0.0,6.0,79,0.00,,,0.03,Wunderground v.1.15,2013-08-27 17:59:00,
2013-08-27 14:04:00,82.0,75.2,29.05,NNW,337,0.0,6.0,80,0.00,,,0.03,Wunderground v.1.15,2013-08-27 18:04:00,
2013-08-27 14:09:00,82.5,75.7,29.04,NNW,336,0.0,6.0,80,0.00,,,0.03,Wunderground v.1.15,2013-08-27 18:09:00,
2013-08-27 14:19:00,83.1,75.5,29.04,NNW,336,0.0,6.0,78,0.00,,,0.03,Wunderground v.1.15,2013-08-27 18:19:00,
2013-08-27 14:24:00,83.2,76.0,29.04,NNW,336,0.0,6.0,79,0.00,,,0.03,Wunderground v.1.15,2013-08-27 18:24:00,
2013-08-27 14:29:00,83.7,76.5,29.04,NNW,335,1.0,6.0,79,0.00,,,0.03,Wunderground v.1.15,2013-08-27 18:29:00,
2013-08-27 14:34:00,84.2,76.6,29.03,WNW,293,2.0,6.0,78,0.00,,,0.03,Wunderground v.1.15,2013-08-27 18:34:00,
2013-08-27 14:39:00,84.1,76.1,29.03,NW,313,1.0,1.0,77,0.00,,,0.03,Wunderground v.1.15,2013-08-27 18:39:00,
2013-08-27 14:49:00,84.3,75.9,29.02,WNW,301,1.0,1.0,76,0.00,,,0.03,Wunderground v.1.15,2013-08-27 18:49:00,
2013-08-27 14:54:00,84.7,76.3,29.03,NNW,332,1.0,3.0,76,0.00,,,0.03,Wunderground v.1.15,2013-08-27 18:54:00,
2013-08-27 14:59:00,85.2,76.4,29.02,NNW,348,1.0,1.0,75,0.00,,,0.03,Wunderground v.1.15,2013-08-27 18:59:00,
2013-08-27 15:04:00,85.9,76.2,29.02,North,5,1.0,3.0,73,0.00,,,0.03,Wunderground v.1.15,2013-08-27 19:04:00,
2013-08-27 15:09:00,86.5,76.4,29.02,NNW,346,2.0,6.0,72,0.00,,,0.03,Wunderground v.1.15,2013-08-27 19:09:00,
2013-08-27 15:14:00,86.4,75.9,29.02,NNE,15,2.0,6.0,71,0.00,,,0.03,Wunderground v.1.15,2013-08-27 19:14:00,
2013-08-27 15:20:00,86.0,75.9,29.02,NNE,15,1.0,1.0,72,0.00,,,0.03,Wunderground v.1.15,2013-08-27 19:20:00,
2013-08-27 15:25:00,85.9,76.2,29.02,NNE,26,0.0,2.0,73,0.00,,,0.03,Wunderground v.1.15,2013-08-27 19:25:00,
2013-08-27 15:30:00,86.4,76.7,29.01,NNW,344,1.0,6.0,73,0.00,,,0.03,Wunderground v.1.15,2013-08-27 19:30:00,
2013-08-27 15:35:00,86.3,75.4,29.02,NNW,346,1.0,6.0,70,0.00,,,0.03,Wunderground v.1.15,2013-08-27 19:35:00,
2013-08-27 15:40:00,85.7,75.2,29.01,North,360,1.0,1.0,71,0.00,,,0.03,Wunderground v.1.15,2013-08-27 19:40:00,
2013-08-27 15:45:00,85.1,75.5,29.01,North,5,1.0,6.0,73,0.00,,,0.03,Wunderground v.1.15,2013-08-27 19:45:00,
2013-08-27 15:55:00,85.1,75.5,29.02,NNE,22,1.0,5.0,73,0.00,,,0.03,Wunderground v.1.15,2013-08-27 19:55:00,
2013-08-27 16:00:00,85.6,75.9,29.01,North,5,2.0,2.0,73,0.00,,,0.03,Wunderground v.1.15,2013-08-27 20:00:00,
2013-08-27 16:05:00,86.2,75.3,29.01,North,5,2.0,6.0,70,0.00,,,0.03,Wunderground v.1.15,2013-08-27 20:05:00,
2013-08-27 16:10:00,86.5,76.4,29.01,North,5,1.0,6.0,72,0.00,,,0.03,Wunderground v.1.15,2013-08-27 20:10:00,
2013-08-27 16:15:00,86.4,75.9,29.01,North,5,0.0,6.0,71,0.00,,,0.03,Wunderground v.1.15,2013-08-27 20:15:00,
2013-08-27 16:25:00,83.7,75.7,29.01,East,84,0.0,6.0,77,0.00,,,0.03,Wunderground v.1.15,2013-08-27 20:25:00,
2013-08-27 16:30:00,80.9,74.9,29.01,ESE,114,2.0,11.0,82,0.00,,,0.03,Wunderground v.1.15,2013-08-27 20:30:00,
2013-08-27 16:35:00,78.9,74.0,29.01,SE,126,5.0,11.0,85,0.00,,,0.03,Wunderground v.1.15,2013-08-27 20:35:00,
2013-08-27 16:40:00,78.3,74.1,29.01,ESE,117,5.0,5.0,87,0.00,,,0.03,Wunderground v.1.15,2013-08-27 20:40:00,
2013-08-27 16:45:00,77.6,73.4,29.01,ESE,123,5.0,7.0,87,0.00,,,0.03,Wunderground v.1.15,2013-08-27 20:45:00,
2013-08-27 16:50:00,77.1,72.9,29.01,ESE,111,7.0,12.0,87,0.00,,,0.03,Wunderground v.1.15,2013-08-27 20:50:00,
2013-08-27 16:59:00,76.7,72.5,29.01,SE,126,7.0,7.0,87,0.00,,,0.03,Wunderground v.1.15,2013-08-27 20:59:00,
2013-08-27 17:04:00,76.7,72.5,29.01,SE,124,4.0,7.0,87,0.00,,,0.03,Wunderground v.1.15,2013-08-27 21:04:00,
2013-08-27 17:09:00,76.6,72.1,29.01,ESE,121,4.0,6.0,86,0.00,,,0.03,Wunderground v.1.15,2013-08-27 21:09:00,
2013-08-27 17:14:00,76.6,72.1,29.01,ESE,121,6.0,6.0,86,0.00,,,0.03,Wunderground v.1.15,2013-08-27 21:14:00,
2013-08-27 17:19:00,76.6,72.1,29.01,SE,126,4.0,4.0,86,0.00,,,0.03,Wunderground v.1.15,2013-08-27 21:19:00,
2013-08-27 17:29:00,76.8,72.3,29.01,SE,126,1.0,6.0,86,0.00,,,0.03,Wunderground v.1.15,2013-08-27 21:29:00,
2013-08-27 17:34:00,77.1,72.9,29.01,SE,126,1.0,6.0,87,0.00,,,0.03,Wunderground v.1.15,2013-08-27 21:34:00,
2013-08-27 17:39:00,77.4,72.9,29.01,SE,126,0.0,6.0,86,0.00,,,0.03,Wunderground v.1.15,2013-08-27 21:39:00,
2013-08-27 17:44:00,77.3,72.4,29.01,SE,126,0.0,6.0,85,0.00,,,0.03,Wunderground v.1.15,2013-08-27 21:44:00,
2013-08-27 17:49:00,77.4,72.5,29.01,SE,126,0.0,6.0,85,0.00,,,0.03,Wunderground v.1.15,2013-08-27 21:49:00,
2013-08-27 17:54:00,77.4,72.5,29.01,SE,126,1.0,6.0,85,0.00,,,0.03,Wunderground v.1.15,2013-08-27 21:54:00,
2013-08-27 18:04:00,77.3,72.4,29.01,SE,125,2.0,6.0,85,0.00,,,0.03,Wunderground v.1.15,2013-08-27 22:04:00,
2013-08-27 18:09:00,77.3,72.8,29.01,SE,125,2.0,2.0,86,0.00,,,0.03,Wunderground v.1.15,2013-08-27 22:09:00,
2013-08-27 18:14:00,77.4,72.5,29.01,SE,125,0.0,6.0,85,0.00,,,0.03,Wunderground v.1.15,2013-08-27 22:14:00,
2013-08-27 18:19:00,77.3,72.1,29.01,SE,125,1.0,1.0,84,0.00,,,0.03,Wunderground v.1.15,2013-08-27 22:19:00,
2013-08-27 18:24:00,77.4,72.5,29.02,SE,125,1.0,6.0,85,0.00,,,0.03,Wunderground v.1.15,2013-08-27 22:24:00,
2013-08-27 18:34:00,77.4,72.5,29.01,SE,126,0.0,6.0,85,0.00,,,0.03,Wunderground v.1.15,2013-08-27 22:34:00,
2013-08-27 18:39:00,77.4,72.5,29.01,SE,126,0.0,6.0,85,0.00,,,0.03,Wunderground v.1.15,2013-08-27 22:39:00,
2013-08-27 18:44:00,77.4,72.5,29.01,SE,126,0.0,6.0,85,0.00,,,0.03,Wunderground v.1.15,2013-08-27 22:44:00,
2013-08-27 18:49:00,77.4,72.9,29.02,SE,126,0.0,6.0,86,0.00,,,0.03,Wunderground v.1.15,2013-08-27 22:49:00,
2013-08-27 18:54:00,77.3,72.4,29.01,SE,126,0.0,6.0,85,0.00,,,0.03,Wunderground v.1.15,2013-08-27 22:54:00,
2013-08-27 18:59:00,77.1,72.6,29.01,SE,126,0.0,6.0,86,0.00,,,0.03,Wunderground v.1.15,2013-08-27 22:59:00,
2013-08-27 19:05:00,77.0,72.8,29.01,SE,126,0.0,6.0,87,0.00,,,0.03,Wunderground v.1.15,2013-08-27 23:05:00,
2013-08-27 19:10:00,76.8,72.6,29.01,SE,126,0.0,6.0,87,0.00,,,0.03,Wunderground v.1.15,2013-08-27 23:10:00,
2013-08-27 19:15:00,76.6,72.8,29.01,SE,126,1.0,6.0,88,0.00,,,0.03,Wunderground v.1.15,2013-08-27 23:15:00,
2013-08-27 19:20:00,76.4,72.6,29.01,SE,126,1.0,1.0,88,0.00,,,0.03,Wunderground v.1.15,2013-08-27 23:20:00,
2013-08-27 19:25:00,76.2,72.7,29.00,SE,126,1.0,4.0,89,0.00,,,0.03,Wunderground v.1.15,2013-08-27 23:25:00,
2013-08-27 19:30:00,75.8,72.3,29.01,SE,126,3.0,3.0,89,0.00,,,0.03,Wunderground v.1.15,2013-08-27 23:30:00,
2013-08-27 19:40:00,75.6,72.5,29.01,SE,126,2.0,6.0,90,0.00,,,0.03,Wunderground v.1.15,2013-08-27 23:40:00,
2013-08-27 19:45:00,75.5,72.4,29.01,SE,126,1.0,6.0,90,0.00,,,0.03,Wunderground v.1.15,2013-08-27 23:45:00,
2013-08-27 19:50:00,75.4,72.3,29.01,SE,126,1.0,6.0,90,0.00,,,0.03,Wunderground v.1.15,2013-08-27 23:50:00,
2013-08-27 19:55:00,75.4,72.3,29.01,SE,126,0.0,6.0,90,0.00,,,0.03,Wunderground v.1.15,2013-08-27 23:55:00,
2013-08-27 20:00:00,75.5,72.4,29.01,SE,126,0.0,6.0,90,0.00,,,0.03,Wunderground v.1.15,2013-08-28 00:00:00,
2013-08-27 20:10:00,75.3,72.2,29.01,SE,126,0.0,6.0,90,0.00,,,0.03,Wunderground v.1.15,2013-08-28 00:10:00,
2013-08-27 20:15:00,75.1,72.3,29.01,SE,126,0.0,6.0,91,0.00,,,0.03,Wunderground v.1.15,2013-08-28 00:15:00,
2013-08-27 20:20:00,74.9,72.1,29.01,SE,126,1.0,1.0,91,0.00,,,0.03,Wunderground v.1.15,2013-08-28 00:20:00,
2013-08-27 20:25:00,74.8,72.0,29.02,SE,126,1.0,2.0,91,0.00,,,0.03,Wunderground v.1.15,2013-08-28 00:25:00,
2013-08-27 20:30:00,74.7,72.2,29.02,SE,126,1.0,1.0,92,0.00,,,0.03,Wunderground v.1.15,2013-08-28 00:30:00,
2013-08-27 20:35:00,74.7,72.2,29.02,SE,126,1.0,6.0,92,0.00,,,0.03,Wunderground v.1.15,2013-08-28 00:35:00,
2013-08-27 20:45:00,74.5,72.0,29.01,South,173,3.0,6.0,92,0.00,,,0.03,Wunderground v.1.15,2013-08-28 00:45:00,
2013-08-27 20:50:00,74.5,72.3,29.02,South,173,4.0,6.0,93,0.00,,,0.03,Wunderground v.1.15,2013-08-28 00:50:00,
2013-08-27 20:55:00,74.3,72.1,29.02,South,187,3.0,6.0,93,0.00,,,0.03,Wunderground v.1.15,2013-08-28 00:55:00,
2013-08-27 21:00:00,74.3,72.1,29.02,SSW,209,2.0,2.0,93,0.00,,,0.03,Wunderground v.1.15,2013-08-28 01:00:00,
2013-08-27 21:05:00,74.2,72.0,29.03,SSW,209,1.0,6.0,93,0.00,,,0.03,Wunderground v.1.15,2013-08-28 01:05:00,
2013-08-27 21:14:00,74.2,72.4,29.03,SSW,209,0.0,6.0,94,0.00,,,0.03,Wunderground v.1.15,2013-08-28 01:14:00,
2013-08-27 21:19:00,74.3,72.5,29.03,SSW,209,0.0,6.0,94,0.00,,,0.03,Wunderground v.1.15,2013-08-28 01:19:00,
2013-08-27 21:24:00,74.4,72.6,29.03,SSW,210,0.0,6.0,94,0.00,,,0.03,Wunderground v.1.15,2013-08-28 01:24:00,
2013-08-27 21:29:00,74.4,72.6,29.03,SSW,211,0.0,6.0,94,0.00,,,0.03,Wunderground v.1.15,2013-08-28 01:29:00,
2013-08-27 21:35:00,74.5,72.7,29.03,SW,229,1.0,6.0,94,0.00,,,0.03,Wunderground v.1.15,2013-08-28 01:35:00,
2013-08-27 21:40:00,74.5,72.7,29.03,WSW,242,1.0,6.0,94,0.00,,,0.03,Wunderground v.1.15,2013-08-28 01:40:00,
2013-08-27 21:49:00,74.5,72.7,29.03,WSW,255,0.0,6.0,94,0.00,,,0.03,Wunderground v.1.15,2013-08-28 01:49:00,
2013-08-27 21:54:00,74.5,72.7,29.03,WSW,255,0.0,6.0,94,0.00,,,0.03,Wunderground v.1.15,2013-08-28 01:54:00,
2013-08-27 21:59:00,74.4,72.6,29.03,WSW,258,0.0,6.0,94,0.00,,,0.03,Wunderground v.1.15,2013-08-28 01:59:00,
2013-08-27 22:04:00,74.4,72.6,29.03,WNW,284,0.0,6.0,94,0.00,,,0.03,Wunderground v.1.15,2013-08-28 02:04:00,
2013-08-27 22:09:00,74.3,72.5,29.02,WNW,295,1.0,6.0,94,0.00,,,0.03,Wunderground v.1.15,2013-08-28 02:09:00,
2013-08-27 22:19:00,74.2,72.4,29.03,WNW,296,1.0,6.0,94,0.00,,,0.03,Wunderground v.1.15,2013-08-28 02:19:00,
2013-08-27 22:24:00,74.1,72.6,29.03,WNW,296,1.0,6.0,95,0.00,,,0.03,Wunderground v.1.15,2013-08-28 02:24:00,
2013-08-27 22:29:00,74.1,72.6,29.03,WNW,296,1.0,1.0,95,0.00,,,0.03,Wunderground v.1.15,2013-08-28 02:29:00,
2013-08-27 22:34:00,74.0,72.5,29.03,WNW,296,1.0,6.0,95,0.00,,,0.03,Wunderground v.1.15,2013-08-28 02:34:00,
2013-08-27 22:39:00,74.0,72.5,29.03,WNW,290,1.0,6.0,95,0.00,,,0.03,Wunderground v.1.15,2013-08-28 02:39:00,
2013-08-27 22:44:00,74.0,72.5,29.03,WNW,296,1.0,6.0,95,0.00,,,0.03,Wunderground v.1.15,2013-08-28 02:44:00,
2013-08-27 22:54:00,73.9,72.4,29.03,WNW,302,1.0,6.0,95,0.00,,,0.03,Wunderground v.1.15,2013-08-28 02:54:00,
2013-08-27 22:59:00,73.8,72.3,29.03,WNW,288,1.0,1.0,95,0.00,,,0.03,Wunderground v.1.15,2013-08-28 02:59:00,
2013-08-27 23:04:00,73.8,72.3,29.03,WNW,292,1.0,4.0,95,0.00,,,0.03,Wunderground v.1.15,2013-08-28 03:04:00,
2013-08-27 23:09:00,73.7,72.2,29.03,WNW,292,2.0,2.0,95,0.00,,,0.03,Wunderground v.1.15,2013-08-28 03:09:00,
2013-08-27 23:14:00,73.7,72.2,29.02,WNW,302,2.0,3.0,95,0.00,,,0.03,Wunderground v.1.15,2013-08-28 03:14:00,
2013-08-27 23:20:00,73.7,72.5,29.02,WNW,289,2.0,2.0,96,0.00,,,0.03,Wunderground v.1.15,2013-08-28 03:20:00,
2013-08-27 23:25:00,73.7,72.5,29.02,WNW,292,2.0,6.0,96,0.00,,,0.03,Wunderground v.1.15,2013-08-28 03:25:00,
2013-08-27 23:30:00,73.6,72.4,29.02,WNW,295,2.0,6.0,96,0.00,,,0.03,Wunderground v.1.15,2013-08-28 03:30:00,
2013-08-27 23:35:00,73.5,72.3,29.02,WNW,294,2.0,6.0,96,0.00,,,0.03,Wunderground v.1.15,2013-08-28 03:35:00,
2013-08-27 23:40:00,73.5,72.3,29.02,WNW,292,3.0,6.0,96,0.00,,,0.03,Wunderground v.1.15,2013-08-28 03:40:00,
2013-08-27 23:45:00,73.5,72.3,29.01,WNW,298,3.0,6.0,96,0.00,,,0.03,Wunderground v.1.15,2013-08-28 03:45:00,
2013-08-27 23:55:00,73.4,72.2,29.02,WNW,298,1.0,6.0,96,0.00,,,0.03,Wunderground v.1.15,2013-08-28 03:55:00,